This demonstration page uses our WeatherBlox Daily Observations layout. Learn more.

41.55636, -103.73856

Hourly Observations for March 31, 2019

Temp ( °F °C ) Dew Point ( °F °C ) Humidity (%) Winds ( mph kmh ) Pressure ( in mb ) Visibility ( mi km ) Precip ( " mm )
12:58 am 00:58 Mostly Clear 34 1.2 23 -5.1 63 63 N 7 11 30.42 1030 10 16.0934 0 0
1:58 am 01:58 Clear 29 -1.7 23 -5.1 78 78 NNW 7 11 30.46 1031 10 16.0934 0 0
2:58 am 02:58 Clear 29 -1.9 23 -5 80 80 NNW 3 6 30.45 1031 10 16.0934 0 0
3:58 am 03:58 Clear 28 -2.1 22 -5.3 79 79 WNW 6 9 30.46 1032 10 16.0934 0 0
5:58 am 05:58 Clear 27 -2.7 22 -5.6 81 81 W 9 15 30.46 1032 10 16.0934 0 0
6:58 am 06:58 Clear 26 -3.2 21 -6.1 81 81 W 8 13 30.44 1031 10 16.0934 0 0
7:58 am 07:58 Clear 27 -3 21 -6.1 79 79 W 7 11 30.44 1031 10 16.0934 0 0
8:58 am 08:58 Clear 26 -3.4 20 -6.5 79 79 W 7 11 30.42 1030 10 16.0934 0 0
9:58 am 09:58 Clear 26 -3.3 20 -6.6 78 78 W 7 11 30.4 1030 10 16.0934 0 0
10:58 am 10:58 Clear 25 -3.9 19 -7.1 79 79 W 7 11 30.4 1030 10 16.0934 0 0
11:58 am 11:58 Clear 26 -3.2 20 -6.8 76 76 W 7 11 30.39 1029 10 16.0934 0 0
12:58 pm 12:58 Sunny 27 -2.6 19 -7 72 72 W 7 11 30.42 1030 10 16.0934 0 0
1:58 pm 13:58 Sunny 31 -0.5 24 -4.7 74 74 WSW 6 9 30.42 1030 10 16.0934 0 0
2:58 pm 14:58 Sunny 35 1.8 22 -5.7 58 58 W 7 11 30.4 1029 10 16.0934 0 0
3:58 pm 15:58 Sunny 37 2.7 22 -5.5 55 55 WSW 7 11 30.39 1029 10 16.0934 0 0
4:58 pm 16:58 Sunny 39 3.7 22 -5.8 50 50 WSW 9 15 30.37 1029 10 16.0934 0 0
5:58 pm 17:58 Sunny 41 4.9 23 -4.8 50 50 WSW 9 15 30.35 1028 10 16.0934 0 0
6:58 pm 18:58 Mostly Sunny 43 6.3 22 -5.5 43 43 WSW 8 13 30.32 1027 10 16.0934 0 0
7:58 pm 19:58 Sunny 45 7.3 21 -6.2 38 38 SW 5 7 30.27 1025 10 16.0934 0 0
8:58 pm 20:58 Partly Cloudy 47 8.1 21 -5.9 37 37 Calm 30.25 1025 10 16.0934 0 0
9:58 pm 21:58 Mostly Sunny 48 8.9 20 -6.6 33 33 NW 5 7 30.22 1023 10 16.0934 0 0
10:58 pm 22:58 Sunny 48 8.8 21 -5.9 35 35 W 5 7 30.19 1023 10 16.0934 0 0
11:58 pm 23:58 Sunny 48 8.7 19 -7.1 32 32 Calm 30.19 1022 10 16.0934 0 0

Powered by AerisWeather